Overview Statistics Trail Chart Weather Telemetry Raw packets
 

This is the latest recevied weather packets stored in our database for station/object 4S6DRJ-13. If no packets are shown the sender has not sent any weather packets the latest 10 day(s).

<< 78 79 80 81 82 83 84 >>
Time Temp. Humidity Pressure Rain* Wind** Luminosity Snow
1788335675 31.11° C 69% 1008.9 hPa 0 mm 2.24 m/s, 211° 1122 W/m² -
1788335614 31.11° C 69% 1009 hPa 0 mm 0.45 m/s, 295° 1126 W/m² -
1788335553 31.11° C 69% 1009 hPa 0 mm 1.34 m/s, 215° 1127 W/m² -
1788335492 31.11° C 69% 1009.2 hPa 0 mm 1.34 m/s, 251° 1104 W/m² -
1788335431 31.11° C 69% 1008.9 hPa 0 mm 0.89 m/s, 7° 345 W/m² -
1788335370 31.11° C 68% 1008.8 hPa 0 mm 1.34 m/s, 291° 665 W/m² -
1788335309 31.67° C 67% 1009.1 hPa 0 mm 3.13 m/s, 190° 459 W/m² -
1788335248 31.67° C 67% 1009 hPa 0 mm 1.79 m/s, 298° 384 W/m² -
1788335187 31.67° C 67% 1008.9 hPa 0 mm 2.24 m/s, 290° 364 W/m² -
1788335126 31.67° C 66% 1008.9 hPa 0 mm 0.89 m/s, 44° 576 W/m² -
1788335065 31.11° C 68% 1008.9 hPa 0 mm 2.24 m/s, 211° 1128 W/m² -
1788335004 31.11° C 68% 1009 hPa 0 mm 2.68 m/s, 140° 1133 W/m² -
1788334943 31.11° C 70% 1009.1 hPa 0 mm 0.45 m/s, 311° 1131 W/m² -
1788334882 31.67° C 69% 1009.1 hPa 0 mm 3.13 m/s, 190° 1130 W/m² -
1788334821 31.67° C 66% 1009.1 hPa 0 mm 2.24 m/s, 282° 276 W/m² -
1788334760 31.67° C 67% 1009 hPa 0 mm 1.79 m/s, 337° 316 W/m² -
1788334699 31.67° C 67% 1008.9 hPa 0 mm 1.79 m/s, 308° 415 W/m² -
1788334638 31.67° C 68% 1009.1 hPa 0 mm 1.79 m/s, 16° 861 W/m² -
1788334577 31.67° C 68% 1009.3 hPa 0 mm 1.34 m/s, 232° 496 W/m² -
1788334516 31.67° C 68% 1009.1 hPa 0 mm 1.79 m/s, 61° 377 W/m² -
1788334455 32.22° C 67% 1009.2 hPa 0 mm 1.79 m/s, 251° 388 W/m² -
1788334394 32.22° C 67% 1009.1 hPa 0 mm 2.24 m/s, 271° 390 W/m² -
1788334333 31.67° C 66% 1009.2 hPa 0 mm 1.79 m/s, 288° 332 W/m² -
1788334272 31.67° C 67% 1009.3 hPa 0 mm 1.79 m/s, 34° 311 W/m² -
1788334211 31.67° C 69% 1009.1 hPa 0 mm 0.89 m/s, 68° 1140 W/m² -

* Rain latest hour (hover to see other rain measurements)
** Current wind speed in m/s (hover to see current wind gust speed)